Location: Beaver Brook Station
(42.3793°N, 71.2203°W)
Time: 05:58:37
(UTC+00:00)

X-37B - Pass Details

Date: 30 January 2021
Orbit: 383 x 391 km, 45.0° (Epoch: 27 February)

Event Time Altitude Azimuth Distance (km) Brightness Sun altitude
Rises 23:36:23 0° 285° (WNW) 2,274 5.7 -18.5°
Reaches altitude 10° 23:38:35 10° 274° (W) 1,418 4.6 -18.9°
Maximum altitude 23:41:26 30° 211° (SSW) 727 2.3 -19.5°
Enters shadow 23:42:28 24° 175° (S) 851 2.3 -19.7°
